Regional Weather Roundup
Issued by NWS Pendleton, OR

Home |  Current Version |  Previous Version |  Text Only |  Print | Product List |  Glossary On
Versions: 1 2 3 4 5 6 7 8 9 10 11 12 13 14 15 16 17 18 19 20 21 22 23 24 25 26 27 28 29 30 31 32 33 34 35 36 37 38 39 40 41 42 43 44 45 46 47 48 49 50
987
ASUS46 KPDT 150725
RWRPDT
PENDLETON REGIONAL WEATHER ROUNDUP
NATIONAL WEATHER SERVICE PENDLETON OREGON
1200 AM PDT SAT JUN 15 2024

NOTE: FAIR INDICATES FEW OR NO CLOUDS BELOW 12,000 FEET WITH NO
SIGNIFICANT WEATHER AND/OR OBSTRUCTIONS TO VISIBILITY.

# INDICATES UNOFFICIAL STATION AND DATA

WAZ520-150810-
EAST SLOPES OF WASHINGTON CASCADES

CITY            SKY/WX      TMP DP  RH  WIND    PRES   REMARKS
#BULLFROG       N/A         50  42  74  CALM    N/A
#CLE ELUM HS    N/A         49  41  74  SW7     29.91F
#ELK HTS DOT    N/A         49  41  74  SW6     N/A
#GLENWOOD       N/A         54  44  69  SW5     29.97S
#NILE           N/A         50  41  71  CALM    29.30S
#TROUT LAKE 1NE N/A         52  43  71  W3      29.96F
#TROUT LAKE 1E  N/A         52  43  71  CALM    30.02F
$$

WAZ521-150810-
SIMCOE HIGHLANDS

CITY            SKY/WX      TMP DP  RH  WIND    PRES   REMARKS
#SATUS PASS DOT N/A         51  32  48  NW13    N/A
#CENTERVILLE 1SWN/A         54  41  61  W8      29.91R
#LYLE 6NE       N/A         56  45  66  N10     29.98S
#PITT 4SE       N/A         52  41  66  W7      29.98S
$$

WAZ026-150810-
KITTITAS VALLEY

CITY            SKY/WX      TMP DP  RH  WIND    PRES   REMARKS
ELLENSBURG AP   FAIR        54  41  61  NW16G25 29.95F
#ELLENSBURG CWU N/A         52  42  69  CALM    29.88F
#ELLENSBURG 1E  N/A         53  43  69  W6      29.96S
#KITTITAS 3S    N/A         53  42  66  NW8     29.92S
#MANASTASH RDG  N/A         49  39  68  NW13    N/A    WCI 44
#ROCKY CYN DOT  N/A         51  43  74  W17     N/A
#RYEGRASS DOT   N/A         48  39  71  E16     N/A    WCI 42
#THORP 6N       N/A         49  42  77  CALM    29.87F
$$

WAZ027-150810-
YAKIMA VALLEY

CITY            SKY/WX      TMP DP  RH  WIND    PRES   REMARKS
SUNNYSIDE AP    MOCLDY      58  42  55  W7      29.94R
YAKIMA AIRPORT  CLOUDY      59  40  49  CALM    29.95S
YAKIMA-VAGABOND MOCLEAR     54  39  57  E7      29.91S
#MABTON         N/A         60  40  47  W6      29.95R
#NACHES 2SW     N/A         52  39  61  W5      29.95F
#OUTLOOK DOT    N/A         58  40  51  SW9     N/A
#PARKER DOT     N/A         59  39  47  N1      N/A
#TERRACE HTS    N/A         57  41  55  N2      29.87S
#I82 S UMTANUM RN/A         53  37  54  N13     N/A
#UNION GAP DOT  N/A         56  42  59  N1      N/A
#ZILLAH DOT     N/A         60  39  46  W8      N/A
$$

WAZ028-150810-
LOWER COLUMBIA BASIN...WASHINGTON

CITY            SKY/WX      TMP DP  RH  WIND    PRES   REMARKS
PASCO           FAIR        55  45  69  W3      29.92S
PROSSER AWOS    N/A         61  39  44  W8      29.95S
RICHLAND AWOS   CLOUDY      62  41  46  W8      29.92S
#BASIN CITY 5SW N/A         59  42  53  W10     29.90S
#BENTON CITY    N/A         58  40  51  CALM    29.79S
#CONNELL 5N     N/A         53  41  64  CALM    29.88F
#KENNEWICK 3S   N/A         57  37  47  CALM    29.94S
#PROSSER DOT    N/A         61  37  41  W3      N/A
#SAGEMOOR 2W    N/A         57  42  57  CALM    29.91F
$$

WAZ029-150810-
FOOTHILLS OF THE BLUES...WASHINGTON

CITY            SKY/WX      TMP DP  RH  WIND    PRES   REMARKS
WALLA WALLA AP  FAIR        59  37  44  S9      29.93S
#CLYDE 6NW      N/A         49  35  58  CALM    29.94S
#DELANEY DOT    N/A         57  40  53  SE1     N/A
#WALLA WALLA 5E N/A         50  41  71  S2      N/A
#WHITMAN MISSIONN/A         54  45  71  E1      29.97F
$$

WAZ030-150810-
BLUE MOUNTAINS...WASHINGTON

CITY            SKY/WX      TMP DP  RH  WIND    PRES   REMARKS
$$

ORZ009-041-WAZ024-150810-
COLUMBIA RIVER GORGE

CITY            SKY/WX      TMP DP  RH  WIND    PRES   REMARKS
HOOD RIVER AP   PTCLDY      55  45  69  CALM    30.02R
THE DALLES AP   MOCLEAR     62  45  54  NW14G29 29.98S
#CELILO DOT     N/A         63  42  46  SW8     N/A
#LYLE           N/A         61  48  62  NW13    30.01R
#MARYHILL       N/A         57  40  53  W8      N/A
#RUFUS DOT      N/A         64  39  40  W13     N/A

$$

ORZ510-150810-
NORTH CENTRAL OREGON

CITY            SKY/WX      TMP DP  RH  WIND    PRES   REMARKS
#ANTELOPE       N/A         52  39  61  CALM    29.82F
#COW CYN RST AREN/A         51  40  66  NW8     N/A
#DUFUR          N/A         49  41  74  CALM    29.95S
#GRASS VALLEY 1SN/A         49  40  71  W2      29.93S
#KENT DOT       N/A         50  35  56  W12     N/A
#SHANIKO 5WSW   N/A         49  36  61  W12     N/A    WCI 44
#WASCO DOT      N/A         54  41  61  W5      N/A
#WASCO 5NE      N/A         53  42  66  CALM    29.95R
$$

ORZ511-150810-
CENTRAL OREGON

CITY            SKY/WX      TMP DP  RH  WIND    PRES   REMARKS
BEND AIRPORT    FAIR        46  36  68  SE5     30.03F
MADRAS AIRPORT  FAIR        50  36  58  CALM    30.05F
PRINEVILLE AP   PTCLDY      45  34  65  W6      30.04S
REDMOND AIRPORT FAIR        53  37  54  N6      30.03S
#ASHWOOD SCHOOL N/A         48  36  63  CALM    29.98S
#CULVER         N/A         54  39  57  CALM    29.01S
#PRINEVILLE     N/A         52  40  63  CALM    30.03S

$$


ORZ509-150810-
EAST SLOPES OF OREGON CASCADES

CITY            SKY/WX      TMP DP  RH  WIND    PRES   REMARKS
SISTERS AWOS    N/A         52  39  61  W12     30.00F
SUNRIVER AWOS   FAIR        45  36  70  SW7     30.09F
#BLUE BOX PASS  N/A         44  N/A N/A E2      N/A
#CAMP SHERMAN   N/A         51  38  61  S1      30.01R
#LA PINE DOT    N/A         46  36  68  W3      N/A
#LAVA BUTTE DOT N/A         44  36  73  SW3     N/A
#SISTERS ODOT   N/A         47  31  53  W5      N/A
#WANOGA BUTTE D N/A         39  31  73  W9      N/A

$$

ORZ044-150810-
LOWER COLUMBIA BASIN...OREGON

CITY            SKY/WX      TMP DP  RH  WIND    PRES   REMARKS
HERMISTON       FAIR        59  40  49  SW9     29.94R
#BOARDMAN SCHOOLN/A         64  42  45  CALM    29.88R
#ECHO 8SW       N/A         58  42  55  SW14    29.95S
#I-84 EX 198 DOTN/A         59  38  45  E16     N/A
#UMATILLA       N/A         62  42  48  W2      29.84R
$$

ORZ507-150810-
NORTHERN FOOTHILLS OF THE BLUES

CITY            SKY/WX      TMP DP  RH  WIND    PRES   REMARKS
PENDLETON AIRPT FAIR        58  37  45  S6      29.96S
#ATHENA         N/A         52  39  61  S6      29.93R
#CAYUSE         N/A         57  40  53  CALM    29.90S
#HELIX 3N       N/A         49  38  66  CALM    29.97S
#HOLDMAN 6E     N/A         55  40  57  CALM    29.69S
#M-FREEWATER 5SEN/A         56  39  53  CALM    29.93F
#PDT SUNRIDGE   N/A         54  40  59  CALM    29.93S
#PENDLETON 6SE  N/A         53  39  59  CALM    29.87R
#TUTUILLA       N/A         48  38  68  CALM    30.01R
#UMAPINE 2E     N/A         55  43  64  CALM    29.89S

$$

ORZ508-150810-
SOUTHERN FOOTHILLS OF THE BLUES

CITY            SKY/WX      TMP DP  RH  WIND    PRES   REMARKS
#AJAX           N/A         53  40  61  SW7     30.00S
#HEPPNER EOC    N/A         52  36  54  CALM    29.89R
#HEPPNER 4NE    N/A         48  37  65  CALM    29.96S
#RUGGS 2SW      N/A         50  37  61  W8      29.97S

$$

ORZ502-503-150810-
BLUE MOUNTAINS

CITY            SKY/WX      TMP DP  RH  WIND    PRES   REMARKS
MEACHAM         FAIR        43  36  76  CALM    30.00F
#BATTLE MTN DOT N/A         45  33  63  N2      N/A
#HARDMAN 10S    N/A         44  35  70  CALM    30.09F
#LADD CYN SMT   N/A         43  35  73  N1      N/A
#N POWDER DOT   N/A         47  35  63  N5      N/A
#TOLLGATE       N/A         42  33  70  CALM    30.03F
#WESTON 4E      N/A         51  35  54  CALM    29.88S
$$

ORZ505-150810-
JOHN DAY BASIN

CITY            SKY/WX      TMP DP  RH  WIND    PRES   REMARKS
JOHN DAY        FAIR        49  33  54  W8      29.98F
#MITCHELL 8NW   N/A         50  35  56  CALM    29.92S
#MT. VERNON 5SE N/A         48  33  56  CALM    29.99F
$$

ORZ506-150810-
OCHOCO AND JOHN DAY HIGHLANDS

CITY            SKY/WX      TMP DP  RH  WIND    PRES   REMARKS
#BUCK CREEK DOT N/A         49  30  48  N6      N/A
#HORSE RIDGE DO N/A         48  34  58  W5      N/A
#KEYES SMT DOT  N/A         45  34  65  NW5     N/A
#PAULINA ODOT   N/A         54  33  45  NW5     N/A
#PRAIRIE CITY   N/A         46  38  73  CALM    29.88F
#SENECA 9NW     N/A         40  32  73  CALM    29.83S
$$

ORZ049-150810-
GRANDE RONDE VALLEY

CITY            SKY/WX      TMP DP  RH  WIND    PRES   REMARKS
LA GRANDE       FAIR        47  38  71  N8      29.96F
#COVE SCHOOL    N/A         45  38  76  CALM    29.97F
#ELGIN 1E       N/A         45  37  73  CALM    N/A
#IMBLER SCHOOL  N/A         45  36  70  CALM    29.93F
#ISLAND CITY 4N N/A         50  44  80  CALM    30.10R
#LADD CYN DOT   N/A         51  37  59  SE10    N/A
#UNION 1S       N/A         50  37  61  CALM    29.87F
$$

ORZ050-150810-
WALLOWA COUNTY

CITY            SKY/WX      TMP DP  RH  WIND    PRES   REMARKS
JOSEPH AIRPORT  PTCLDY      42  34  73  S3      29.99F
#IMNAHA SCHOOL  N/A         58  37  45  CALM    29.88F
#JOSEPH 3N      N/A         41  35  79  CALM    30.01F
#LOSTINE 3SE    N/A         50  50  100 CALM    30.05F
#MT HOWARD 8000 N/A         39  30  70  E1      30.03F
#WALLOWA LAKE   N/A         45  38  76  CALM    30.03F
#WALLOWA SCHOOL N/A         44  37  76  CALM    29.88S



$$